Location: Ohmer (historical)
(38.0096°N, 122.0227°W)
Time: 07:24:37
(UTC+00:00)

Cosmos 1605 Rocket - Pass Details

Date: 14 February 2026
Orbit: 943 x 1005 km, 82.9° (Epoch: 9 March)

Event Time Altitude Azimuth Distance (km) Brightness Sun altitude
Rises 13:07:23 0° 184° (S) 3,715 7.0 -22.6°
Reaches altitude 10° 13:09:54 10° 183° (S) 2,770 6.3 -22.1°
Maximum altitude 13:16:17 87° 97° (E) 1,010 4.0 -20.8°
Drops below altitude 10° 13:22:42 10° 8° (N) 2,773 6.4 -19.6°
Sets 13:25:13 0° 8° (N) 3,720 7.1 -19.1°
